AirNav   Air Wisconsin pilot careers
 
 956 users online  

5T0 Ward Airpark
Beasley, Texas, USA

GOING TO BEASLEY?


FAA INFORMATION EFFECTIVE 01 FEBRUARY 2018

Location

FAA Identifier: 5T0
Lat/Long: 29-30-09.8000N / 095-56-09.5000W
29-30.163333N / 095-56.158333W
29.5027222 / -95.9359722
(estimated)
Elevation: 107 ft. / 33 m (estimated)
Variation: 06E (1985)
From city: 1 mile NW of BEASLEY, TX
Time zone: UTC -6 (UTC -5 during Daylight Saving Time)
Zip code: 77417

Airport Operations

Airport use: Open to the public
Activation date: 05/1981
Control tower: no
ARTCC: HOUSTON CENTER
FSS: MONTGOMERY COUNTY FLIGHT SERVICE STATION
FOR FP FILING CALL CXO FSS 1-800-833-5602.
NOTAMs facility: CXO (NOTAM-D service available)
Attendance: UNATND
Wind indicator: yes
Segmented circle: no

Airport Communications

CTAF: 122.9
WX ASOS at SGR (16 nm NE): 118.125 (281-242-7605)
WX AWOS-3 at TME (18 nm N): 119.525 (281-945-5451)
WX AWOS-3 at ARM (19 nm SW): 118.475 (979-532-2791)

Nearby radio navigation aids

VOR radial/distance  VOR name  Freq  Var
ELAr108/22.1EAGLE LAKE VOR/DME116.4008E
HUBr250/35.6HOBBY VOR/DME117.1005E

 
NDB name  Hdg/Dist  Freq  Var  ID
WHARTON031/18.724506EARM .- .-. --

Airport Services

Runway Information

Runway 4/22

Dimensions: 3110 x 100 ft. / 948 x 30 m
Surface: turf, in fair condition
RUNWAY 4  RUNWAY 22
Latitude: 29-29.979588N29-30.346815N
Longitude: 095-56.362723W095-55.952833W
Elevation: 106.0 ft.107.0 ft.
Traffic pattern: leftleft
Runway heading: 038 magnetic, 044 true218 magnetic, 224 true
Obstructions: 30 ft. pline, marked50 ft. trees, 2066 ft. from runway, 140 ft. left of centerline, 41:1 slope to clear

Airport Ownership and Management from official FAA records

Ownership: Privately-owned
Owner: MALCOLM WARD
P.O. BOX 2188
PORT ARANASAS, TX 78373
Phone (351) 793-9325
Manager: MALCOLM WARD
P.O. BOX 2188
PORT ARANASAS, TX 78373
Phone (351) 793-9325

Airport Operational Statistics

Aircraft based on the field: 1
Single engine airplanes: 1
    
Aircraft operations: avg 21/month *
100% transient general aviation
* for 12-month period ending 31 December 2016

Additional Remarks

FOR CD CTC HOUSTON APCH AT 281-443-5844 TO CNL IFR CALL 281-443-5888.

Instrument Procedures

There are no published instrument procedures at 5T0.

Some nearby airports with instrument procedures:

KSGR - Sugar Land Regional Airport (16 nm NE)
KTME - Houston Executive Airport (18 nm N)
KARM - Wharton Regional Airport (19 nm SW)
KELA - Eagle Lake Airport (21 nm W)
KIWS - West Houston Airport (23 nm NE)
 
Loc | Ops | Rwys | IFR | FBO | Links
Com | Nav | Svcs | Stats | Notes

AirNav Hotels Sweepstakes
 
Area around 5T0 (Ward Airpark)
 
Road maps at: MapQuest Bing Google
 
Aerial photo
No photo
 
Sectional chart

 
Airport distance calculator
Flying to Ward Airpark? Find the distance to fly.

From to 5T0

Sunrise and sunset
Times for 24-Feb-2018
 Local
(UTC-6)
 Zulu
(UTC)
Morning civil twilight06:3212:32
Sunrise06:5612:56
Sunset18:1900:19
Evening civil twilight18:4300:43

Current date and time
Zulu (UTC)  24-Feb-2018 21:09:17
Local (UTC-6)  24-Feb-2018 15:09:17
 
METAR
KSGR 
16nm NE 
242053Z 20015G24KT 10SM SCT038 BKN055 26/19 A2987 RMK AO2 PK WND 20027/2029 SLP116 T02610194 56020
KTME 
18nm N 
242055Z AUTO 21015G23KT 10SM FEW048 SCT055 BKN075 27/19 A2987 RMK AO2
KARM 
19nm SW 
242055Z AUTO 18016KT 10SM SCT024 SCT033 BKN045 25/19 A2987 RMK AO2 T02470187
KELA 
21nm W 
242055Z AUTO 21012G22KT 10SM SCT026 SCT034 OVC048 25/20 A2986 RMK AO2 T02460204
KAXH 
24nm E 
242055Z AUTO 20008G20KT 10SM SCT031 BKN040 OVC046 25/20 A2989 RMK AO2 T02500196
K66R 
31nm W 
242055Z AUTO 19009KT 10SM SCT031 BKN038 OVC044 24/19 A2987 RMK AO2 T02360192
KBYY 
32nm S 
242055Z AUTO 18016G23KT 7SM BKN018 OVC026 25/21 A2987 RMK AO2 T02550213
TAF
KSGR 
16nm NE 
241740Z 2418/2518 17016G26KT P6SM VCSH SCT025 BKN035 TEMPO 2418/2420 BKN025 FM242300 19010KT P6SM VCSH BKN030 FM250300 21007KT P6SM VCSH OVC015 FM250500 25005KT 6SM -SHRA BR OVC008 FM251200 04006KT 6SM -SHRA BR OVC004 FM251500 06008KT 5SM -SHRA BR OVC008
NOTAMs
Click for the latest NOTAMs
NOTAMs are issued by the DoD/FAA and will open in a separate window not controlled by AirNav.

 

 
 

Would you like to see your business listed on this page?

 If your business provides an interesting product or service to pilots, flight crews, aircraft, or users of the Ward Airpark, you should consider listing it here.  To start the listing process, click on the button below
 
Add a business
 

Other Pages about Ward Airpark

Update a link
 
Copyright © AirNav, LLC. All rights reserved. Privacy Policy  Contact